When you browse on this site, cookies collect data to enhance your experience and personalize the content and advertising you see.
Visit our Privacy Policy to learn more. By continuing to use the site, you agree to this use of cookies and data.
  • In Österreich
  • Länderverzeichnis
  • Für 7 Tage
  • Wassertemperatur
  • Satellitenkarten
  • Wetterkarte
  • News
  • Widgets
  • user-avatar
    Anmelden

    Stündliche Wetter Skrzynica

    Heute, 20 Februar, Mittwoch

    Zeit Temperatur Niederschläge Wind Luftdruck Luftfeuchtigkeit
    00:00 +3°C° 0 mm 5 m/S 758 mmHg 84%
    01:00 +4°C° 0 mm 4 m/S 758 mmHg 88%
    02:00 +3°C° 0 mm 4 m/S 758 mmHg 88%
    03:00 +3°C° 0 mm 4 m/S 758 mmHg 88%
    04:00 +2°C° 0 mm 5 m/S 758 mmHg 89%
    05:00 +2°C° 0 mm 5 m/S 758 mmHg 87%
    06:00 +3°C° 0 mm 5 m/S 759 mmHg 85%
    07:00 +4°C° 0 mm 4 m/S 759 mmHg 83%
    08:00 +4°C° 0 mm 4 m/S 759 mmHg 81%
    09:00 +5°C° 0 mm 5 m/S 760 mmHg 78%
    10:00 +5°C° 0 mm 5 m/S 760 mmHg 75%
    11:00 +6°C° 0 mm 5 m/S 761 mmHg 73%
    12:00 +6°C° 0 mm 5 m/S 761 mmHg 71%
    13:00 +7°C° 0 mm 5 m/S 761 mmHg 68%
    14:00 +7°C° 0.1 mm 4 m/S 761 mmHg 68%
    15:00 +7°C° 0.1 mm 4 m/S 761 mmHg 68%
    16:00 +8°C° 0.1 mm 3 m/S 762 mmHg 68%
    17:00 +8°C° 0.1 mm 3 m/S 762 mmHg 72%
    18:00 +7°C° 0.1 mm 2 m/S 762 mmHg 76%
    19:00 +7°C° 0.1 mm 2 m/S 762 mmHg 79%
    20:00 +6°C° 0 mm 2 m/S 763 mmHg 82%
    21:00 +6°C° 0 mm 2 m/S 763 mmHg 84%
    22:00 +6°C° 0 mm 2 m/S 763 mmHg 87%
    23:00 +6°C° 0 mm 2 m/S 763 mmHg 88%

    Morgen, 21 Februar, Donnerstag

    Zeit Temperatur Niederschläge Wind Luftdruck Luftfeuchtigkeit
    00:00 +6°C° 0 mm 2 m/S 763 mmHg 88%
    01:00 +6°C° 0 mm 2 m/S 764 mmHg 89%
    02:00 +5°C° 0 mm 2 m/S 763 mmHg 88%
    03:00 +4°C° 0 mm 3 m/S 763 mmHg 87%
    04:00 +4°C° 0 mm 3 m/S 763 mmHg 86%
    05:00 +4°C° 0 mm 3 m/S 763 mmHg 84%
    06:00 +4°C° 0 mm 4 m/S 763 mmHg 83%
    07:00 +4°C° 0 mm 4 m/S 763 mmHg 81%
    08:00 +5°C° 0 mm 4 m/S 763 mmHg 80%
    09:00 +5°C° 0 mm 4 m/S 762 mmHg 79%
    10:00 +6°C° 0 mm 5 m/S 762 mmHg 78%
    11:00 +6°C° 0.3 mm 5 m/S 762 mmHg 79%
    12:00 +6°C° 0.3 mm 5 m/S 762 mmHg 80%
    13:00 +5°C° 0.3 mm 6 m/S 762 mmHg 80%
    14:00 +5°C° 0.5 mm 6 m/S 762 mmHg 81%
    15:00 +7°C° 0.5 mm 6 m/S 761 mmHg 82%
    16:00 +7°C° 0.5 mm 6 m/S 761 mmHg 82%
    17:00 +7°C° 0.3 mm 5 m/S 761 mmHg 84%
    18:00 +7°C° 0.3 mm 5 m/S 761 mmHg 86%
    19:00 +7°C° 0.3 mm 5 m/S 761 mmHg 88%
    20:00 +7°C° 0.6 mm 5 m/S 761 mmHg 89%
    21:00 +7°C° 0.6 mm 5 m/S 761 mmHg 90%
    22:00 +7°C° 0.6 mm 5 m/S 761 mmHg 90%
    23:00 +7°C° 0.4 mm 5 m/S 761 mmHg 90%

    übermorgen, 22 Februar, Freitag

    Zeit Temperatur Niederschläge Wind Luftdruck Luftfeuchtigkeit
    00:00 +7°C° 0.4 mm 5 m/S 762 mmHg 90%
    01:00 +7°C° 0.4 mm 5 m/S 762 mmHg 90%
    02:00 +7°C° 0.1 mm 5 m/S 763 mmHg 90%
    03:00 +6°C° 0.1 mm 5 m/S 764 mmHg 89%
    04:00 +6°C° 0.1 mm 5 m/S 764 mmHg 88%
    05:00 +5°C° 0 mm 5 m/S 765 mmHg 84%
    06:00 +2°C° 0 mm 5 m/S 767 mmHg 80%
    07:00 +1°C° 0 mm 5 m/S 768 mmHg 77%
    08:00 +1°C° 0 mm 5 m/S 769 mmHg 71%
    09:00 0°C° 0 mm 5 m/S 770 mmHg 65%
    10:00 0°C° 0 mm 4 m/S 771 mmHg 59%
    11:00 +1°C° 0 mm 4 m/S 772 mmHg 54%
    12:00 +1°C° 0 mm 4 m/S 773 mmHg 49%
    13:00 +3°C° 0 mm 3 m/S 773 mmHg 45%
    14:00 +3°C° 0 mm 3 m/S 774 mmHg 44%
    15:00 +2°C° 0 mm 3 m/S 774 mmHg 44%
    16:00 +2°C° 0 mm 3 m/S 775 mmHg 44%
    17:00 +1°C° 0 mm 3 m/S 775 mmHg 49%
    18:00 +1°C° 0 mm 2 m/S 776 mmHg 54%
    19:00 -1°C° 0 mm 2 m/S 776 mmHg 59%
    20:00 -1°C° 0 mm 2 m/S 777 mmHg 58%
    21:00 -2°C° 0 mm 2 m/S 777 mmHg 57%
    22:00 -2°C° 0 mm 2 m/S 778 mmHg 56%
    23:00 -2°C° 0 mm 2 m/S 778 mmHg 55%

    23 Februar, Samstag

    Zeit Temperatur Niederschläge Wind Luftdruck Luftfeuchtigkeit
    00:00 -3°C° 0 mm 2 m/S 778 mmHg 53%
    01:00 -3°C° 0 mm 2 m/S 778 mmHg 51%
    02:00 -3°C° 0 mm 2 m/S 778 mmHg 50%
    03:00 -1°C° 0 mm 1 m/S 778 mmHg 49%
    04:00 -1°C° 0 mm 1 m/S 778 mmHg 49%
    05:00 -1°C° 0 mm 1 m/S 778 mmHg 49%
    06:00 -1°C° 0 mm 1 m/S 778 mmHg 49%
    07:00 -1°C° 0 mm 1 m/S 778 mmHg 50%
    08:00 0°C° 0 mm 1 m/S 778 mmHg 45%
    09:00 0°C° 0 mm 1 m/S 778 mmHg 41%
    10:00 -1°C° 0 mm 2 m/S 778 mmHg 37%
    11:00 +1°C° 0 mm 2 m/S 778 mmHg 35%
    12:00 +3°C° 0 mm 1 m/S 778 mmHg 32%
    13:00 +4°C° 0 mm 1 m/S 778 mmHg 29%
    14:00 +4°C° 0 mm 1 m/S 778 mmHg 29%
    15:00 +4°C° 0 mm 1 m/S 777 mmHg 30%
    16:00 +3°C° 0 mm 0 m/S 777 mmHg 30%
    17:00 +3°C° 0 mm 1 m/S 777 mmHg 32%
    18:00 +2°C° 0 mm 1 m/S 777 mmHg 35%
    19:00 +1°C° 0 mm 1 m/S 777 mmHg 38%
    20:00 +1°C° 0 mm 1 m/S 777 mmHg 38%
    21:00 +1°C° 0 mm 1 m/S 777 mmHg 38%
    22:00 +1°C° 0 mm 1 m/S 777 mmHg 38%
    23:00 0°C° 0 mm 1 m/S 776 mmHg 38%

    24 Februar, Sonntag

    Zeit Temperatur Niederschläge Wind Luftdruck Luftfeuchtigkeit
    00:00 0°C° 0 mm 1 m/S 776 mmHg 38%
    01:00 0°C° 0 mm 1 m/S 776 mmHg 38%
    02:00 0°C° 0 mm 1 m/S 776 mmHg 39%
    03:00 0°C° 0 mm 1 m/S 776 mmHg 39%
    04:00 0°C° 0 mm 1 m/S 775 mmHg 39%
    05:00 0°C° 0 mm 1 m/S 775 mmHg 39%
    06:00 0°C° 0 mm 1 m/S 775 mmHg 39%
    07:00 0°C° 0 mm 1 m/S 775 mmHg 39%
    08:00 +2°C° 0 mm 1 m/S 775 mmHg 37%
    09:00 +3°C° 0 mm 1 m/S 775 mmHg 35%
    10:00 +3°C° 0 mm 2 m/S 775 mmHg 33%
    11:00 +4°C° 0 mm 2 m/S 775 mmHg 34%
    12:00 +5°C° 0 mm 2 m/S 775 mmHg 35%
    13:00 +7°C° 0 mm 2 m/S 774 mmHg 35%
    14:00 +6°C° 0 mm 2 m/S 774 mmHg 40%
    15:00 +6°C° 0 mm 2 m/S 774 mmHg 44%
    16:00 +7°C° 0 mm 1 m/S 774 mmHg 49%
    17:00 +6°C° 0 mm 1 m/S 774 mmHg 54%
    18:00 +5°C° 0 mm 1 m/S 774 mmHg 59%
    19:00 +3°C° 0 mm 1 m/S 774 mmHg 64%
    20:00 +2°C° 0 mm 2 m/S 774 mmHg 66%
    21:00 +2°C° 0 mm 2 m/S 774 mmHg 68%
    22:00 +2°C° 0 mm 2 m/S 774 mmHg 70%
    23:00 +2°C° 0 mm 2 m/S 774 mmHg 72%

    25 Februar, Montag

    Zeit Temperatur Niederschläge Wind Luftdruck Luftfeuchtigkeit
    00:00 +1°C° 0 mm 2 m/S 774 mmHg 74%
    01:00 +1°C° 0 mm 2 m/S 774 mmHg 76%
    02:00 +2°C° 0 mm 2 m/S 774 mmHg 77%
    03:00 +2°C° 0 mm 2 m/S 774 mmHg 78%
    04:00 +2°C° 0 mm 2 m/S 774 mmHg 80%
    05:00 +1°C° 0 mm 2 m/S 774 mmHg 82%
    06:00 +1°C° 0 mm 2 m/S 774 mmHg 85%
    07:00 +1°C° 0 mm 2 m/S 774 mmHg 87%
    08:00 +2°C° 0 mm 2 m/S 774 mmHg 83%
    09:00 +3°C° 0 mm 3 m/S 774 mmHg 79%
    10:00 +5°C° 0 mm 3 m/S 775 mmHg 75%
    11:00 +7°C° 0 mm 3 m/S 775 mmHg 70%
    12:00 +8°C° 0 mm 2 m/S 775 mmHg 65%
    13:00 +10°C° 0 mm 2 m/S 774 mmHg 61%
    14:00 +10°C° 0 mm 2 m/S 774 mmHg 60%
    15:00 +10°C° 0 mm 2 m/S 774 mmHg 59%
    16:00 +10°C° 0 mm 2 m/S 774 mmHg 58%
    17:00 +9°C° 0 mm 1 m/S 774 mmHg 63%
    18:00 +8°C° 0 mm 1 m/S 775 mmHg 68%
    19:00 +6°C° 0 mm 1 m/S 775 mmHg 74%
    20:00 +5°C° 0 mm 1 m/S 775 mmHg 75%
    21:00 +5°C° 0 mm 1 m/S 775 mmHg 77%
    22:00 +3°C° 0 mm 0 m/S 775 mmHg 79%
    23:00 +3°C° 0 mm 0 m/S 774 mmHg 79%
    Mehr zeigen